This is the latest recevied weather packets stored in our database for station/object DG1JLA-3. If no packets are shown the sender has not sent any weather packets the latest 10 day(s).
| Time | Temp. | Humidity | Pressure | Rain* | Wind** | Luminosity | Snow |
|---|---|---|---|---|---|---|---|
| 1777910094 | 21.67° C | 55% | 1013.8 hPa | 0 mm | - | - | - |
| 1777909794 | 21.67° C | 54% | 1013.7 hPa | 0 mm | - | - | - |
| 1777909494 | 21.67° C | 55% | 1013.7 hPa | 0 mm | - | - | - |
| 1777909194 | 22.22° C | 54% | 1013.8 hPa | 0 mm | - | - | - |
| 1777908894 | 21.67° C | 55% | 1013.8 hPa | 0 mm | - | - | - |
| 1777908594 | 21.67° C | 55% | 1013.8 hPa | 0 mm | - | - | - |
| 1777908294 | 21.67° C | 56% | 1013.9 hPa | 0 mm | - | - | - |
| 1777907994 | 21.67° C | 55% | 1013.9 hPa | 0 mm | - | - | - |
| 1777907694 | 22.22° C | 54% | 1013.9 hPa | 0 mm | - | - | - |
| 1777907394 | 22.78° C | 52% | 1013.9 hPa | 0 mm | - | - | - |
| 1777907094 | 22.78° C | 52% | 1013.9 hPa | 0 mm | - | - | - |
| 1777906794 | 22.78° C | 53% | 1013.8 hPa | 0 mm | - | - | - |
| 1777906494 | 22.78° C | 52% | 1013.8 hPa | 0 mm | - | - | - |
| 1777906194 | 22.78° C | 52% | 1013.8 hPa | 0 mm | - | - | - |
| 1777905894 | 22.22° C | 52% | 1013.9 hPa | 0 mm | - | - | - |
| 1777905594 | 22.22° C | 54% | 1013.8 hPa | 0 mm | - | - | - |
| 1777905294 | 22.78° C | 51% | 1014 hPa | 0 mm | - | - | - |
| 1777904994 | 22.22° C | 50% | 1014 hPa | 0 mm | - | - | - |
| 1777904694 | 22.22° C | 50% | 1014 hPa | 0 mm | - | - | - |
| 1777904394 | 22.22° C | 51% | 1014 hPa | 0 mm | - | - | - |
| 1777904094 | 22.22° C | 51% | 1014.1 hPa | 0 mm | - | - | - |
| 1777903794 | 22.22° C | 51% | 1014.2 hPa | 0 mm | - | - | - |
| 1777903494 | 22.22° C | 52% | 1014.2 hPa | 0 mm | - | - | - |
| 1777903194 | 22.22° C | 52% | 1014.2 hPa | 0 mm | - | - | - |
| 1777902894 | 22.22° C | 52% | 1014.3 hPa | 0 mm | - | - | - |
* Rain latest hour (hover to see other rain measurements)
** Current wind speed in m/s (hover to see current wind gust speed)